GP1970 Weather Reports


time (UTC)temp
C
wind
direction
speed
KPH
gust
KPH
rain 1hr
cm
rain 24hr
cm
rain mn
cm
humidity
%
barometer
mb
20260506102531 9 232 6.4 9.7 0.00 1.63 0.51 91 1006.5
20260506101517 10 213 6.4 8.0 0.00 1.63 0.51 91 1006.6
20260506100541 10 212 6.4 9.7 0.00 1.63 0.51 91 1006.5
20260506095524 10 196 4.8 8.0 0.00 1.63 0.51 91 1006.7
20260506094528 10 209 6.4 9.7 0.00 1.63 0.51 90 1006.5
20260506093531 10 196 3.2 6.4 0.00 1.63 0.51 90 1006.5
20260506092517 10 218 4.8 8.0 0.00 1.63 0.51 90 1006.6
20260506091521 10 227 4.8 8.0 0.00 1.63 0.51 90 1006.8
20260506090524 10 236 6.4 12.9 0.00 1.63 0.51 90 1006.9
20260506085522 10 192 8.0 14.5 0.00 1.63 0.51 90 1006.5
20260506084540 10 243 6.4 9.7 0.00 1.63 0.51 90 1006.1
20260506083517 10 198 6.4 9.7 0.00 1.63 0.51 90 1006.1
20260506082535 10 237 4.8 8.0 0.00 1.63 0.51 90 1006.1
20260506081525 10 220 6.4 9.7 0.00 1.63 0.51 90 1006.0
20260506080528 10 220 6.4 9.7 0.00 1.63 0.51 90 1005.8
20260506073521 10 208 9.7 17.7 0.00 1.63 0.51 90 1005.5
20260506072525 11 197 8.0 12.9 0.00 1.63 0.51 90 1005.5
20260506071529 11 221 9.7 16.1 0.00 1.63 0.51 90 1005.5
20260506070532 11 215 8.0 11.3 0.00 1.63 0.51 90 1005.1
20260506061515 11 243 8.0 12.9 0.00 1.63 0.51 89 1005.0
20260506060518 11 221 9.7 14.5 0.00 1.63 0.51 89 1004.8
20260506050522 12 205 9.7 12.9 0.00 1.63 0.51 88 1004.2
20260506044523 12 239 8.0 12.9 0.00 1.63 0.51 93 1003.8
20260506043515 12 196 6.4 9.7 0.00 1.63 0.51 94 1003.8
20260506042518 12 238 4.8 9.7 0.00 1.63 0.51 94 1003.8
20260506041516 12 246 6.4 11.3 0.00 1.63 0.51 94 1003.7
20260506040526 12 269 6.4 8.0 0.00 1.63 0.51 94 1003.2
20260506035529 12 301 4.8 8.0 0.00 1.63 0.51 95 1003.2
20260506034515 12 261 4.8 8.0 0.00 1.63 0.51 95 1002.8
20260506033519 12 223 6.4 9.7 0.00 1.63 0.51 96 1002.8
20260506032523 12 216 6.4 9.7 0.00 1.63 0.51 96 1002.7
20260506031526 12 216 4.8 6.4 0.00 1.63 0.51 96 1002.6
20260506030530 12 206 4.8 6.4 0.00 1.63 0.51 96 1002.3
20260506025516 12 225 4.8 8.0 0.00 1.63 0.51 96 1002.3
20260506024519 12 246 3.2 4.8 0.00 1.63 0.51 96 1002.1
20260506023523 12 224 4.8 6.4 0.03 1.63 0.51 96 1002.0
20260506022547 12 268 4.8 8.0 0.10 1.63 0.51 96 1001.8
20260506021530 13 201 4.8 6.4 0.20 1.63 0.51 96 1001.6
20260506020516 13 209 3.2 8.0 0.20 1.63 0.51 96 1001.3
20260506015519 13 218 3.2 6.4 0.25 1.63 0.51 96 1001.5
20260506014523 13 167 0.0 1.6 0.41 1.63 0.51 96 1001.8
20260506013526 13 203 0.0 3.2 0.43 1.60 0.48 96 1001.7
20260506012530 13 236 4.8 6.4 0.36 1.52 0.41 95 1001.5
20260506011516 13 211 3.2 8.0 0.25 1.42 0.30 95 1001.0
20260506010520 13 215 4.8 8.0 0.25 1.42 0.30 95 1001.3
20260506005523 13 240 4.8 8.0 0.20 1.37 0.25 94 1001.0
20260506004527 13 296 3.2 6.4 0.10 1.22 0.10 94 1000.8
20260506003524 13 203 1.6 3.2 0.05 1.17 0.05 93 1000.3
20260506002516 13 0.0 0.0 0.05 1.17 0.05 93 1000.0
20260506001520 13 0.0 0.0 0.05 1.17 0.05 92 1000.3
20260506000517 13 270 1.6 4.8 0.05 1.17 0.05 91 1000.0
20260505235515 14 222 3.2 4.8 0.05 1.17 0.05 91 1000.3
20260505234531 14 232 3.2 6.4 0.00 1.12 0.00 90 999.6
20260505233516 14 212 4.8 8.0 0.03 1.12 0.00 90 999.5
20260505232520 14 235 4.8 8.0 0.03 1.12 0.00 90 999.6
20260505231524 14 234 4.8 8.0 0.03 1.12 0.00 89 999.7
20260505230548 14 207 4.8 8.0 0.13 1.12 0.00 89 999.7
20260505225551 15 242 4.8 8.0 0.13 1.12 1.12 88 998.8
20260505224536 15 190 4.8 8.0 0.13 1.12 1.12 87 998.8
20260505223600 15 204 3.2 4.8 0.13 1.09 1.09 86 998.7
20260505222524 15 209 3.2 8.0 0.13 1.09 1.09 84 998.4
20260505221527 15 253 6.4 11.3 0.13 1.09 1.09 82 998.3
20260505220531 15 241 4.8 11.3 0.03 0.99 0.99 81 998.1
20260505215537 15 220 9.7 12.9 0.03 0.99 0.99 80 998.1
20260505214520 16 230 11.3 12.9 0.03 0.99 0.99 78 997.5
20260505213524 16 262 11.3 16.1 0.00 0.97 0.97 75 997.8
20260505212528 17 273 14.5 24.1 0.00 0.97 0.97 72 997.5
20260505211532 21 309 20.9 30.6 0.00 0.97 0.97 67 995.8
20260505210537 22 228 17.7 24.1 0.03 0.97 0.97 67 996.0
20260505205541 22 237 17.7 33.8 0.03 0.97 0.97 67 995.4
20260505204524 22 248 20.9 32.2 0.03 0.97 0.97 68 995.9
20260505203528 22 259 20.9 35.4 0.03 0.97 0.97 70 995.4
20260505202525 22 206 20.9 32.2 0.03 0.97 0.97 71 995.2
20260505201517 22 209 16.1 25.7 0.03 0.97 0.97 73 995.7
20260505200521 22 214 16.1 24.1 0.00 0.94 0.94 76 995.8
20260505195519 21 219 12.9 20.9 0.00 0.94 0.94 78 996.0
20260505194516 20 205 11.3 24.1 0.00 0.94 0.94 80 996.5
20260505193532 20 223 9.7 16.1 0.00 0.94 0.94 81 996.5
20260505192517 21 219 9.7 17.7 0.00 0.94 0.94 82 996.5
20260505191521 20 215 9.7 16.1 0.00 0.94 0.94 83 996.5
20260505190545 19 188 6.4 11.3 0.00 0.94 0.94 86 996.5
20260505185529 17 170 6.4 9.7 0.00 0.94 0.94 89 997.1
20260505184532 17 288 1.6 3.2 0.03 0.94 0.94 90 997.1
20260505183518 16 124 0.0 3.2 0.03 0.94 0.94 91 997.2
20260505182522 15 135 0.0 3.2 0.10 0.94 0.94 91 997.4
20260505181525 15 123 3.2 6.4 0.23 0.94 0.94 91 997.5
20260505180529 15 148 0.0 3.2 0.25 0.94 0.94 91 997.9
20260505175533 14 145 3.2 6.4 0.25 0.94 0.94 90 998.2
20260505174538 15 227 3.2 4.8 0.23 0.91 0.91 88 997.9
20260505173522 15 259 3.2 6.4 0.23 0.91 0.91 87 997.8
20260505172525 15 260 4.8 8.0 0.28 0.84 0.84 86 997.7
20260505171529 15 297 4.8 8.0 0.53 0.71 0.71 84 997.5
20260505170532 15 282 4.8 6.4 0.51 0.69 0.69 83 997.4
20260505165518 16 307 4.8 4.8 0.51 0.69 0.69 82 997.6
20260505164522 16 261 4.8 8.0 0.51 0.69 0.69 80 998.1
20260505163525 16 241 6.4 9.7 0.51 0.69 0.69 78 998.1
20260505162529 17 237 8.0 14.5 0.38 0.56 0.56 73 998.2
20260505161527 17 189 8.0 11.3 0.00 0.18 0.18 73 998.0
20260505160518 17 186 4.8 11.3 0.00 0.18 0.18 73 998.3
20260505152515 18 226 12.9 20.9 0.00 0.23 0.18 71 998.2
20260505151518 19 168 14.5 20.9 0.00 0.28 0.18 70 998.7
20260505150542 -17 0.0 0.0 0.00 0.30 0.18 998.3
20260505140606 17 62 4.8 8.0 0.00 0.66 0.18 72 998.7
20260505124519 12 72 3.2 6.4 0.00 0.84 0.18 83 999.6
20260505123523 11 86 6.4 9.7 0.00 0.84 0.18 84 999.4
20260505122526 11 91 4.8 8.0 0.00 0.84 0.18 84 999.3
20260505121530 11 55 6.4 9.7 0.00 0.84 0.18 85 999.3
20260505120535 11 64 4.8 8.0 0.00 0.84 0.18 86 1000.3
20260505115519 10 84 4.8 8.0 0.00 0.84 0.18 87 1000.2
20260505114523 10 87 4.8 8.0 0.00 0.84 0.18 88 1000.2
20260505113520 10 88 6.4 9.7 0.00 0.84 0.18 88 1000.3
20260505112518 10 42 4.8 8.0 0.18 0.84 0.18 88 1000.3
20260505111515 9 102 4.8 6.4 0.18 0.84 0.18 90 999.9
20260505110519 8 86 4.8 9.7 0.18 0.84 0.18 91 999.8